星链-34598 (STARLINK-34598)

导读

STARLINK-34598是美国SpaceX公司星链星座的一颗低轨通信卫星,于2025年7月8日发射入轨。星链作为全球规模最大的低轨卫星互联网项目,旨在为全球提供高速宽带接入服务,该卫星继承星链技术路线,依托可重复使用火箭降低发射成本,通过相控阵天线与星间链路实现全球覆盖,进一步拓展星链星座的服务能力,推动低轨卫星互联网商业化进程。

基本信息
目录编号:
64759
目录名称:
STARLINK-34598
国际标识:
2025-147E
轨道中心:
EARTH
卫星名称:
星链-34598
卫星全名:
星链-34598 (STARLINK-34598)
卫星状态:
在轨 (已飞行340 天)
发射日期:
2025-07-08 UTC
国别 :
美国 (US)
星等 :
--
轨道信息
数据来源 国际轨道数据
星历时间: 2026-06-13T15:21:24+0800
14小时前
查看轨道信息
半长轴: 6840.842km
偏心率: 0.0001309
轨道倾角: 53.159°
近地点辐角 83.831°
升交点赤经 157.732°
平近点角 276.284°
近地点: 461.809km
远地点: 463.601km
周期: 93.848分钟
每日圈数: 15.343997
详细信息
固有亮度:
5
最大亮度:
2.5
卫星平台:
Starlink V1.0
覆盖范围:
全球
运营商:
太空探索技术公司
运营商所在国:
美国
制造商(研发单位):
太空探索技术公司
制造商所在国:
美国
使用方式:
暂无
卫星简介
Starlink 计划是 SpaceX 推出的全球卫星互联网项目,通过发射低轨道卫星,为全球尤其是偏远地区提供高速、低延迟的互联网服务。自 2019 年起,Starlink 已部署数千颗卫星,旨在缩小全球数字鸿沟,推动互联网普及。该项目还为军事、航空等行业提供通信支持,带来广泛经济效益。
2D轨道图
3D轨道图
轨道高度分析图
轨道倾角分析图
轨道综合分析图
查看轨道综合分析图